Flag for Kazakhstan Weather past 2 weeks in Karaganda, Kazakhstan

Now
50 °F

Passing clouds.


Feels Like: 50 °F
Forecast: 44 / 57 °F
Wind: 1 mph from North

Location: Karaganda

Current Time: Sep 3, 2015 at 6:48:44 AM

Latest Report: Sep 3, 2015 at 6:00 AM


Visibility: N/A

Pressure: 29.77 "Hg (27.84 "Hg at 555m altitude)

Humidity: 94%

Dew point: 48 °F

Location of KaragandaLocation

Historic Weather in Karaganda — Graph

°F

Karaganda temperature yesterday

Maximum temperature yesterday: 68 °F (at 11:30 AM)
Minimum temperature yesterday: 46 °F (at 3:30 AM)
Average temperature yesterday: 57 °F

Past Weeks' High & Low Weather Summary

 TemperatureHumidityPressure
High97 °F (Aug 19, 4:00 PM)94% (Aug 26, 5:30 AM)30.24 "Hg (Aug 26, 5:30 AM)
Low27 °F (Aug 28, 3:00 AM)9% (Aug 19, 4:00 PM)29.56 "Hg (Aug 25, 3:00 PM)
Average61 °F45%29.87 "Hg
* Reported Aug 19 5:00 AM — Sep 3 5:30 AM, Karaganda, Weather by CustomWeather, © 2015

Note: Actual official high and low records may vary slightly from our data, if they occured in-between our weather recording intervals... More about our weather records

Advertising

Karaganda weather history for previous 24 hours

 ConditionsComfort  
Time TempWeatherWind HumidityBarometerVisibility
5:30 AM
Thu, Sep 3
50 °FPassing clouds.1 mph88%29.77 "HgN/A
5:00 AM50 °FPassing clouds.1 mph88%29.77 "HgN/A
4:30 AM52 °FPassing clouds.1 mph94%29.77 "HgN/A
3:30 AM52 °FPassing clouds.1 mph94%29.77 "HgN/A
3:00 AM52 °FPassing clouds.1 mph94%29.74 "HgN/A
2:30 AM52 °FMostly cloudy.1 mph94%29.74 "HgN/A
2:00 AM52 °FMostly cloudy.1 mph94%29.74 "HgN/A
1:30 AM54 °FMostly cloudy.1 mph94%29.77 "HgN/A
1:00 AM54 °FLight rain. Mostly cloudy.3 mph94%29.77 "HgN/A
12:30 AM54 °FLight rain. Mostly cloudy.3 mph94%29.77 "HgN/A
12:00 AM54 °FLight rain. Overcast.1 mph94%29.77 "Hg6 mi
11:30 PM
Wed, Sep 2
54 °FLight rain. Mostly cloudy.1 mph94%29.77 "HgN/A
11:00 PM54 °FLight rain. Overcast.1 mph94%29.77 "HgN/A
10:30 PM54 °FLight rain. Overcast.3 mph94%29.77 "Hg3 mi
10:00 PM54 °FLight rain. Mostly cloudy.3 mph94%29.80 "Hg2 mi
9:30 PM54 °FLight rain. Mostly cloudy.3 mph94%29.80 "Hg3 mi
9:00 PM54 °FLight rain. Mostly cloudy.6 mph94%29.80 "Hg3 mi
8:30 PM54 °FRain. Overcast.6 mph94%29.77 "Hg2 mi
8:00 PM54 °FSprinkles. Mostly cloudy.1 mph94%29.80 "Hg4 mi
7:30 PM55 °FSprinkles. Mostly cloudy.1 mph88%29.77 "Hg4 mi
7:00 PM55 °FSprinkles. Mostly cloudy.3 mph88%29.77 "HgN/A
6:30 PM55 °FSprinkles. Mostly cloudy.6 mph88%29.80 "Hg4 mi
6:00 PM55 °FSprinkles. Mostly cloudy.6 mph88%29.80 "Hg4 mi
5:30 PM55 °FSprinkles. Mostly cloudy.8 mph88%29.80 "HgN/A
5:00 PM55 °FSprinkles. Mostly cloudy.13 mph82%29.80 "Hg4 mi
4:30 PM63 °FSprinkles. Mostly cloudy.3 mph52%29.80 "HgN/A
4:00 PM64 °FLight rain. Mostly cloudy.3 mph43%29.77 "HgN/A
3:30 PM66 °FMostly cloudy.6 mph40%29.77 "HgN/A
3:00 PM64 °FMostly cloudy.8 mph43%29.77 "HgN/A
2:30 PM64 °FMostly cloudy.10 mph40%29.77 "HgN/A
2:00 PM64 °FMostly cloudy.8 mph43%29.77 "HgN/A
1:30 PM64 °FMostly cloudy.6 mph40%29.77 "HgN/A
1:00 PM64 °FMore clouds than sun.8 mph43%29.77 "HgN/A
12:30 PM64 °FMore clouds than sun.13 mph40%29.80 "HgN/A
12:00 PM68 °FMore clouds than sun.6 mph35%29.80 "HgN/A
11:30 AM68 °FBroken clouds.3 mph33%29.80 "HgN/A
11:00 AM66 °FBroken clouds.8 mph35%29.80 "HgN/A
10:30 AM66 °FPassing clouds.10 mph32%29.80 "HgN/A
9:30 AM63 °FMore clouds than sun.3 mph37%29.80 "HgN/A
9:00 AM61 °FMore clouds than sun.1 mph42%29.80 "HgN/A
8:30 AM59 °FMore clouds than sun.3 mph48%29.80 "HgN/A
8:00 AM57 °FPassing clouds.3 mph51%29.80 "HgN/A
7:30 AM54 °FSunny.1 mph63%29.77 "Hg10 mi
7:00 AM50 °FClear.1 mph67%29.77 "Hg10 mi
6:30 AM50 °FClear.No wind67%29.77 "Hg10 mi
6:00 AM52 °FClear.1 mph62%29.77 "Hg10 mi
Weather by CustomWeather, © 2015

See weather overviewHow to use our weather pages